Location: Most
(50.5133°N, 13.6207°E)
Time: 02:36:22
(UTC+01:00)

Oscar 11 - Pass Details

Date: 30 November 2021
Orbit: 611 x 625 km, 97.6° (Epoch: 17 January)

Event Time Altitude Azimuth Distance (km) Brightness Sun altitude
Rises 04:46:36 0° 22° (NNE) 2,922 10.8 -27.2°
Reaches altitude 10° 04:49:06 10° 35° (NE) 2,008 10.0 -26.8°
Maximum altitude 04:52:49 27° 93° (E) 1,217 9.2 -26.2°
Drops below altitude 10° 04:56:30 10° 152° (SSE) 1,987 10.0 -25.6°
Sets 04:58:57 0° 164° (SSE) 2,886 10.7 -25.2°
